When you browse on this site, cookies collect data to enhance your experience and personalize the content and advertising you see.
Visit our Privacy Policy to learn more. By continuing to use the site, you agree to this use of cookies and data.
  • In Czech Republic
  • List of Countries
  • For 7 days
  • Water Temperature
  • Satellite Maps
  • Weather Map
  • Weather Widgets
  • user-avatar
    Login

    Hourly Weather Millcreek

    Today, 20 April, Saturday

    Time Temperature Precipitation Wind Pressure Humidity
    00:00 +15°C° 0 mm 4 mps 646 mmHg 28%
    01:00 +14°C° 0 mm 4 mps 646 mmHg 30%
    02:00 +14°C° 0 mm 3 mps 645 mmHg 32%
    03:00 +14°C° 0 mm 3 mps 645 mmHg 34%
    04:00 +13°C° 0 mm 4 mps 645 mmHg 35%
    05:00 +13°C° 0 mm 4 mps 645 mmHg 37%
    06:00 +14°C° 0 mm 4 mps 645 mmHg 36%
    07:00 +16°C° 0 mm 3 mps 645 mmHg 36%
    08:00 +17°C° 0 mm 3 mps 645 mmHg 36%
    09:00 +19°C° 0 mm 4 mps 645 mmHg 31%
    10:00 +21°C° 0 mm 4 mps 645 mmHg 27%
    11:00 +23°C° 0 mm 4 mps 646 mmHg 22%
    12:00 +23°C° 0 mm 5 mps 645 mmHg 22%
    13:00 +23°C° 0 mm 5 mps 645 mmHg 22%
    14:00 +25°C° 0 mm 5 mps 645 mmHg 22%
    15:00 +23°C° 0 mm 5 mps 644 mmHg 24%
    16:00 +23°C° 0 mm 4 mps 644 mmHg 25%
    17:00 +24°C° 0 mm 3 mps 643 mmHg 26%
    18:00 +21°C° 0.1 mm 3 mps 643 mmHg 32%
    19:00 +19°C° 0.1 mm 2 mps 643 mmHg 38%
    20:00 +18°C° 0.1 mm 1 mps 643 mmHg 44%
    21:00 +16°C° 0.2 mm 2 mps 643 mmHg 50%
    22:00 +15°C° 0.2 mm 2 mps 643 mmHg 55%
    23:00 +14°C° 0.2 mm 2 mps 643 mmHg 60%

    Tomorrow, 21 April, Sunday

    Time Temperature Precipitation Wind Pressure Humidity
    00:00 +14°C° 0.1 mm 2 mps 643 mmHg 66%
    01:00 +13°C° 0.1 mm 1 mps 642 mmHg 73%
    02:00 +12°C° 0.1 mm 1 mps 642 mmHg 80%
    03:00 +11°C° 0.1 mm 0 mps 642 mmHg 80%
    04:00 +10°C° 0.1 mm 0 mps 642 mmHg 81%
    05:00 +10°C° 0.1 mm 0 mps 642 mmHg 81%
    06:00 +11°C° 0.1 mm 0 mps 643 mmHg 77%
    07:00 +13°C° 0.1 mm 1 mps 643 mmHg 72%
    08:00 +13°C° 0.1 mm 1 mps 644 mmHg 67%
    09:00 +14°C° 0.5 mm 2 mps 644 mmHg 68%
    10:00 +13°C° 0.5 mm 3 mps 645 mmHg 69%
    11:00 +13°C° 0.5 mm 4 mps 645 mmHg 69%
    12:00 +12°C° 0.5 mm 4 mps 645 mmHg 74%
    13:00 +11°C° 0.5 mm 3 mps 645 mmHg 78%
    14:00 +9°C° 0.5 mm 3 mps 645 mmHg 82%
    15:00 +9°C° 0.1 mm 3 mps 645 mmHg 80%
    16:00 +9°C° 0.1 mm 2 mps 645 mmHg 78%
    17:00 +9°C° 0.1 mm 2 mps 645 mmHg 77%
    18:00 +9°C° 0 mm 2 mps 646 mmHg 78%
    19:00 +10°C° 0 mm 1 mps 646 mmHg 79%
    20:00 +10°C° 0 mm 1 mps 646 mmHg 80%
    21:00 +9°C° 0 mm 1 mps 647 mmHg 80%
    22:00 +8°C° 0 mm 0 mps 647 mmHg 81%
    23:00 +8°C° 0 mm 0 mps 647 mmHg 81%

    Day after tomorrow, 22 April, Monday

    Time Temperature Precipitation Wind Pressure Humidity
    00:00 +8°C° 0 mm 0 mps 647 mmHg 81%
    01:00 +8°C° 0 mm 0 mps 647 mmHg 81%
    02:00 +9°C° 0 mm 1 mps 648 mmHg 81%
    03:00 +9°C° 0.1 mm 1 mps 648 mmHg 82%
    04:00 +8°C° 0.1 mm 1 mps 648 mmHg 83%
    05:00 +8°C° 0.1 mm 1 mps 648 mmHg 84%
    06:00 +9°C° 0.1 mm 1 mps 648 mmHg 83%
    07:00 +9°C° 0.1 mm 1 mps 649 mmHg 82%
    08:00 +9°C° 0.1 mm 1 mps 649 mmHg 81%
    09:00 +9°C° 0.2 mm 2 mps 650 mmHg 80%
    10:00 +10°C° 0.2 mm 2 mps 650 mmHg 79%
    11:00 +10°C° 0.2 mm 3 mps 650 mmHg 77%
    12:00 +11°C° 0.2 mm 3 mps 650 mmHg 76%
    13:00 +11°C° 0.2 mm 3 mps 650 mmHg 74%
    14:00 +12°C° 0.2 mm 3 mps 650 mmHg 72%
    15:00 +13°C° 0.1 mm 2 mps 650 mmHg 71%
    16:00 +13°C° 0.1 mm 2 mps 650 mmHg 70%
    17:00 +14°C° 0.1 mm 2 mps 650 mmHg 68%
    18:00 +13°C° 0 mm 2 mps 650 mmHg 71%
    19:00 +12°C° 0 mm 2 mps 650 mmHg 75%
    20:00 +11°C° 0 mm 1 mps 650 mmHg 78%
    21:00 +10°C° 0 mm 1 mps 650 mmHg 78%
    22:00 +10°C° 0 mm 1 mps 651 mmHg 78%
    23:00 +10°C° 0 mm 1 mps 651 mmHg 78%

    23 April, Tuesday

    Time Temperature Precipitation Wind Pressure Humidity
    00:00 +9°C° 0 mm 1 mps 651 mmHg 78%
    01:00 +9°C° 0 mm 1 mps 650 mmHg 77%
    02:00 +9°C° 0 mm 1 mps 650 mmHg 76%
    03:00 +8°C° 0 mm 1 mps 650 mmHg 76%
    04:00 +8°C° 0 mm 1 mps 650 mmHg 76%
    05:00 +8°C° 0 mm 1 mps 650 mmHg 75%
    06:00 +9°C° 0 mm 1 mps 651 mmHg 71%
    07:00 +11°C° 0 mm 1 mps 652 mmHg 66%
    08:00 +12°C° 0 mm 1 mps 652 mmHg 62%
    09:00 +14°C° 0 mm 2 mps 653 mmHg 59%
    10:00 +15°C° 0 mm 2 mps 653 mmHg 56%
    11:00 +17°C° 0 mm 3 mps 653 mmHg 52%
    12:00 +17°C° 0 mm 3 mps 653 mmHg 50%
    13:00 +18°C° 0 mm 3 mps 652 mmHg 49%
    14:00 +19°C° 0 mm 3 mps 652 mmHg 47%
    15:00 +18°C° 0 mm 3 mps 652 mmHg 48%
    16:00 +18°C° 0 mm 3 mps 651 mmHg 49%
    17:00 +18°C° 0 mm 3 mps 651 mmHg 49%
    18:00 +16°C° 0 mm 2 mps 651 mmHg 54%
    19:00 +15°C° 0 mm 1 mps 650 mmHg 59%
    20:00 +13°C° 0 mm 1 mps 650 mmHg 64%
    21:00 +13°C° 0 mm 1 mps 650 mmHg 66%
    22:00 +12°C° 0 mm 1 mps 651 mmHg 67%
    23:00 +12°C° 0 mm 1 mps 651 mmHg 69%

    24 April, Wednesday

    Time Temperature Precipitation Wind Pressure Humidity
    00:00 +12°C° 0 mm 1 mps 651 mmHg 70%
    01:00 +11°C° 0 mm 1 mps 650 mmHg 71%
    02:00 +11°C° 0 mm 1 mps 650 mmHg 73%
    03:00 +11°C° 0 mm 1 mps 650 mmHg 73%
    04:00 +11°C° 0 mm 1 mps 650 mmHg 73%
    05:00 +11°C° 0 mm 1 mps 650 mmHg 73%
    06:00 +12°C° 0 mm 1 mps 651 mmHg 68%
    07:00 +14°C° 0 mm 1 mps 652 mmHg 62%
    08:00 +15°C° 0 mm 1 mps 652 mmHg 57%
    09:00 +16°C° 0 mm 1 mps 652 mmHg 52%
    10:00 +18°C° 0 mm 2 mps 653 mmHg 48%
    11:00 +19°C° 0 mm 2 mps 653 mmHg 43%
    12:00 +20°C° 0 mm 2 mps 653 mmHg 42%
    13:00 +20°C° 0 mm 3 mps 652 mmHg 40%
    14:00 +21°C° 0 mm 3 mps 652 mmHg 39%
    15:00 +21°C° 0 mm 3 mps 652 mmHg 39%
    16:00 +20°C° 0 mm 3 mps 651 mmHg 39%
    17:00 +20°C° 0 mm 2 mps 651 mmHg 39%
    18:00 +18°C° 0 mm 2 mps 651 mmHg 43%
    19:00 +18°C° 0 mm 1 mps 651 mmHg 47%
    20:00 +14°C° 0 mm 0 mps 651 mmHg 50%
    21:00 +15°C° 0 mm 1 mps 651 mmHg 51%
    22:00 +15°C° 0 mm 1 mps 651 mmHg 51%
    23:00 +14°C° 0 mm 1 mps 651 mmHg 52%

    25 April, Thursday

    Time Temperature Precipitation Wind Pressure Humidity
    00:00 +14°C° 0 mm 1 mps 651 mmHg 53%
    01:00 +14°C° 0 mm 2 mps 651 mmHg 54%
    02:00 +13°C° 0 mm 2 mps 650 mmHg 55%
    03:00 +13°C° 0 mm 2 mps 650 mmHg 56%
    04:00 +13°C° 0 mm 2 mps 650 mmHg 57%
    05:00 +12°C° 0 mm 2 mps 650 mmHg 58%
    06:00 +14°C° 0 mm 2 mps 651 mmHg 55%
    07:00 +16°C° 0 mm 1 mps 652 mmHg 52%
    08:00 +18°C° 0 mm 1 mps 652 mmHg 49%
    09:00 +20°C° 0 mm 1 mps 653 mmHg 46%
    10:00 +22°C° 0 mm 1 mps 653 mmHg 43%
    11:00 +23°C° 0 mm 1 mps 654 mmHg 39%
    12:00 +24°C° 0 mm 1 mps 653 mmHg 38%
    13:00 +24°C° 0 mm 2 mps 653 mmHg 36%
    14:00 +25°C° 0 mm 2 mps 653 mmHg 34%
    15:00 +25°C° 0 mm 2 mps 652 mmHg 35%
    16:00 +25°C° 0 mm 2 mps 652 mmHg 35%
    17:00 +24°C° 0 mm 2 mps 652 mmHg 35%
    18:00 +23°C° 0 mm 1 mps 651 mmHg 40%
    19:00 +21°C° 0 mm 1 mps 651 mmHg 44%
    20:00 +19°C° 0 mm 1 mps 651 mmHg 48%
    21:00 +19°C° 0 mm 1 mps 651 mmHg 49%
    22:00 +17°C° 0 mm 2 mps 651 mmHg 49%
    23:00 +17°C° 0 mm 2 mps 651 mmHg 50%
    Show more